Time,TemperatureF,DewpointF,PressureIn,WindDirection,WindDirectionDegrees,WindSpeedMPH,WindSpeedGustMPH,Humidity,HourlyPrecipIn,Conditions,Clouds,dailyrainin,SoftwareType,DateUTC
2013-08-18 18:36:00,64.5,53.7,29.51,ESE,119,1.0,1.0,68,0.00,,,0.00,Wunderground v.1.15,2013-08-19 02:36:00,
2013-08-18 18:41:00,64.7,53.1,29.51,SE,145,0.0,3.0,66,0.00,,,0.00,Wunderground v.1.15,2013-08-19 02:41:00,
2013-08-18 18:47:00,64.8,52.8,29.51,SE,145,1.0,1.0,65,0.00,,,0.00,Wunderground v.1.15,2013-08-19 02:47:00,
2013-08-18 18:52:00,64.8,51.9,29.51,SE,145,0.0,2.0,63,0.00,,,0.00,Wunderground v.1.15,2013-08-19 02:52:00,
2013-08-18 18:57:00,64.8,51.9,29.51,SE,145,0.0,1.0,63,0.00,,,0.00,Wunderground v.1.15,2013-08-19 02:57:00,
2013-08-18 19:02:00,64.8,51.9,29.51,SE,145,0.0,0.0,63,0.00,,,0.00,Wunderground v.1.15,2013-08-19 03:02:00,
2013-08-18 19:07:00,65.0,52.1,29.51,SE,145,0.0,0.0,63,0.00,,,0.00,Wunderground v.1.15,2013-08-19 03:07:00,
2013-08-18 19:12:00,65.0,51.7,29.51,SE,145,0.0,0.0,62,0.00,,,0.00,Wunderground v.1.15,2013-08-19 03:12:00,
2013-08-18 19:17:00,65.5,50.3,29.51,SE,145,0.0,0.0,58,0.00,,,0.00,Wunderground v.1.15,2013-08-19 03:17:00,
2013-08-18 19:22:00,65.8,49.7,29.51,ESE,119,0.0,1.0,56,0.00,,,0.00,Wunderground v.1.15,2013-08-19 03:22:00,
2013-08-18 19:27:00,65.6,52.2,29.51,NE,53,0.0,1.0,62,0.00,,,0.00,Wunderground v.1.15,2013-08-19 03:27:00,
2013-08-18 19:32:00,65.5,52.6,29.51,NE,51,0.0,2.0,63,0.00,,,0.00,Wunderground v.1.15,2013-08-19 03:32:00,
2013-08-18 19:37:00,65.2,51.4,29.51,NE,51,0.0,2.0,61,0.00,,,0.00,Wunderground v.1.15,2013-08-19 03:37:00,
2013-08-18 19:42:00,65.0,47.4,29.51,NE,51,0.0,0.0,53,0.00,,,0.00,Wunderground v.1.15,2013-08-19 03:42:00,
2013-08-18 19:47:00,65.2,47.6,29.51,NE,51,0.0,0.0,53,0.00,,,0.00,Wunderground v.1.15,2013-08-19 03:47:00,
2013-08-18 19:52:00,65.3,47.2,29.51,NE,51,0.0,0.0,52,0.00,,,0.00,Wunderground v.1.15,2013-08-19 03:52:00,
2013-08-18 19:58:00,65.8,46.6,29.51,NE,51,0.0,0.0,50,0.00,,,0.00,Wunderground v.1.15,2013-08-19 03:58:00,
2013-08-18 20:01:00,66.0,46.8,29.51,NE,51,0.0,0.0,50,0.00,,,0.00,Wunderground v.1.15,2013-08-19 04:01:00,
2013-08-18 20:02:00,66.1,46.9,29.51,NE,51,0.0,0.0,50,0.00,,,0.00,Wunderground v.1.15,2013-08-19 04:02:00,
2013-08-18 20:08:00,66.1,46.9,29.51,NE,51,0.0,0.0,50,0.00,,,0.00,Wunderground v.1.15,2013-08-19 04:08:00,
2013-08-18 20:13:00,66.1,48.0,29.51,NE,51,0.0,0.0,52,0.00,,,0.00,Wunderground v.1.15,2013-08-19 04:13:00,
2013-08-18 20:18:00,66.1,46.9,29.50,NE,51,0.0,0.0,50,0.00,,,0.00,Wunderground v.1.15,2013-08-19 04:18:00,
2013-08-18 20:23:00,66.1,47.4,29.50,NE,51,0.0,0.0,51,0.00,,,0.00,Wunderground v.1.15,2013-08-19 04:23:00,
2013-08-18 20:28:00,66.1,46.9,29.50,NE,51,0.0,0.0,50,0.00,,,0.00,Wunderground v.1.15,2013-08-19 04:28:00,
2013-08-18 20:33:00,66.1,46.9,29.50,NE,51,0.0,0.0,50,0.00,,,0.00,Wunderground v.1.15,2013-08-19 04:33:00,
2013-08-18 20:39:00,66.1,48.5,29.50,NE,51,0.0,0.0,53,0.00,,,0.00,Wunderground v.1.15,2013-08-19 04:39:00,
2013-08-18 20:44:00,66.0,49.8,29.50,NE,51,0.0,0.0,56,0.00,,,0.00,Wunderground v.1.15,2013-08-19 04:44:00,
2013-08-18 20:49:00,66.1,50.4,29.51,NE,51,0.0,0.0,57,0.00,,,0.00,Wunderground v.1.15,2013-08-19 04:49:00,
2013-08-18 20:54:00,66.0,50.3,29.51,NE,51,0.0,0.0,57,0.00,,,0.00,Wunderground v.1.15,2013-08-19 04:54:00,
2013-08-18 20:59:00,65.2,51.0,29.51,NE,51,0.0,0.0,60,0.00,,,0.00,Wunderground v.1.15,2013-08-19 04:59:00,
2013-08-18 21:04:00,64.3,50.6,29.51,NE,51,0.0,0.0,61,0.00,,,0.00,Wunderground v.1.15,2013-08-19 05:04:00,
2013-08-18 21:09:00,63.5,51.1,29.51,NE,51,0.0,0.0,64,0.00,,,0.00,Wunderground v.1.15,2013-08-19 05:09:00,
2013-08-18 21:14:00,62.9,51.0,29.51,NE,51,0.0,0.0,65,0.00,,,0.00,Wunderground v.1.15,2013-08-19 05:14:00,
2013-08-18 21:19:00,62.3,50.8,29.51,NE,51,0.0,0.0,66,0.00,,,0.00,Wunderground v.1.15,2013-08-19 05:19:00,
2013-08-18 21:24:00,61.6,50.5,29.51,NE,51,0.0,0.0,67,0.00,,,0.00,Wunderground v.1.15,2013-08-19 05:24:00,
2013-08-18 21:29:00,61.5,51.2,29.51,NE,51,0.0,0.0,69,0.00,,,0.00,Wunderground v.1.15,2013-08-19 05:29:00,
2013-08-18 21:34:00,61.2,51.7,29.51,NE,51,0.0,0.0,71,0.00,,,0.00,Wunderground v.1.15,2013-08-19 05:34:00,
2013-08-18 21:39:00,61.0,51.5,29.51,NE,51,0.0,0.0,71,0.00,,,0.00,Wunderground v.1.15,2013-08-19 05:39:00,
2013-08-18 21:44:00,61.2,50.9,29.51,SSW,202,0.0,2.0,69,0.00,,,0.00,Wunderground v.1.15,2013-08-19 05:44:00,
2013-08-18 21:50:00,61.5,50.8,29.52,SSW,207,0.0,0.0,68,0.00,,,0.00,Wunderground v.1.15,2013-08-19 05:50:00,
2013-08-18 21:55:00,61.6,50.5,29.52,SSW,209,0.0,1.0,67,0.00,,,0.00,Wunderground v.1.15,2013-08-19 05:55:00,
2013-08-18 22:00:00,61.6,51.3,29.52,SSW,209,0.0,1.0,69,0.00,,,0.00,Wunderground v.1.15,2013-08-19 06:00:00,
2013-08-18 22:05:00,61.3,51.4,29.52,SSW,209,0.0,1.0,70,0.00,,,0.00,Wunderground v.1.15,2013-08-19 06:05:00,
2013-08-18 22:10:00,60.9,51.8,29.52,SSW,209,0.0,0.0,72,0.00,,,0.00,Wunderground v.1.15,2013-08-19 06:10:00,
2013-08-18 22:15:00,60.4,51.7,29.52,SSW,209,0.0,0.0,73,0.00,,,0.00,Wunderground v.1.15,2013-08-19 06:15:00,
2013-08-18 22:20:00,59.8,51.9,29.52,SSW,209,0.0,0.0,75,0.00,,,0.00,Wunderground v.1.15,2013-08-19 06:20:00,
2013-08-18 22:25:00,59.3,51.7,29.52,SSW,209,0.0,0.0,76,0.00,,,0.00,Wunderground v.1.15,2013-08-19 06:25:00,
2013-08-18 22:30:00,58.9,51.0,29.52,SSW,209,0.0,0.0,75,0.00,,,0.00,Wunderground v.1.15,2013-08-19 06:30:00,
2013-08-18 22:35:00,58.7,51.2,29.52,SSW,209,0.0,0.0,76,0.00,,,0.00,Wunderground v.1.15,2013-08-19 06:35:00,
2013-08-18 22:40:00,58.4,50.9,29.52,SSW,209,0.0,0.0,76,0.00,,,0.00,Wunderground v.1.15,2013-08-19 06:40:00,
2013-08-18 22:45:00,58.1,51.3,29.52,SSW,209,0.0,0.0,78,0.00,,,0.00,Wunderground v.1.15,2013-08-19 06:45:00,
2013-08-18 22:50:00,57.6,51.1,29.52,SSW,209,0.0,0.0,79,0.00,,,0.00,Wunderground v.1.15,2013-08-19 06:50:00,
2013-08-18 22:55:00,57.3,51.2,29.52,SSW,209,0.0,0.0,80,0.00,,,0.00,Wunderground v.1.15,2013-08-19 06:55:00,
2013-08-18 23:01:00,56.7,51.3,29.52,SSW,209,0.0,0.0,82,0.00,,,0.00,Wunderground v.1.15,2013-08-19 07:01:00,